Location: Tel Aviv
(32.0670°N, 34.7670°E)
Time: 12:23:45
(UTC+03:00)

Explorer 11/Cluster Stage 4 - Pass Details

Date: 14 September 2024
Orbit: 464 x 1208 km, 28.8° (Epoch: 05 October)

Event Time Altitude Azimuth Distance (km) Brightness Sun altitude
Rises 05:12:26 0° 203° (SSW) 3,327 - -15.9°
Exits shadow 05:13:19 - 199° (SSW) 3,094 9.3 -15.7°
Reaches altitude 10° 05:15:50 10° 182° (S) 2,555 9.0 -15.2°
Maximum altitude 05:19:28 16° 146° (SE) 2,305 9.2 -14.4°
Drops below altitude 10° 05:23:26 10° 111° (ESE) 2,861 10.3 -13.6°
Sets 05:27:35 0° 92° (E) 3,947 11.9 -12.7°
